Time,TemperatureF,DewpointF,PressureIn,WindDirection,WindDirectionDegrees,WindSpeedMPH,WindSpeedGustMPH,Humidity,HourlyPrecipIn,Conditions,Clouds,dailyrainin,SoftwareType,DateUTC
2013-07-26 00:00:00,82.6,77.6,29.95,SE,145,4.0,6.0,85,0.00,,,0.00,Wunderground v.1.15,2013-07-26 05:00:00,
2013-07-26 00:10:00,82.5,77.5,29.95,SSE,159,5.0,5.0,85,0.00,,,0.00,Wunderground v.1.15,2013-07-26 05:10:00,
2013-07-26 00:19:00,82.5,77.5,29.95,SSE,162,4.0,4.0,85,0.00,,,0.00,Wunderground v.1.15,2013-07-26 05:19:00,
2013-07-26 00:24:00,82.4,77.4,29.95,SE,134,4.0,4.0,85,0.00,,,0.00,Wunderground v.1.15,2013-07-26 05:24:00,
2013-07-26 00:29:00,82.4,77.4,29.95,SSE,155,3.0,3.0,85,0.00,,,0.00,Wunderground v.1.15,2013-07-26 05:29:00,
2013-07-26 00:35:00,82.3,77.3,29.95,SSE,149,4.0,6.0,85,0.00,,,0.00,Wunderground v.1.15,2013-07-26 05:35:00,
2013-07-26 00:40:00,82.3,77.3,29.95,South,169,5.0,5.0,85,0.00,,,0.00,Wunderground v.1.15,2013-07-26 05:40:00,
2013-07-26 00:45:00,82.3,77.7,29.95,SSW,210,4.0,5.0,86,0.00,,,0.00,Wunderground v.1.15,2013-07-26 05:45:00,
2013-07-26 00:50:00,82.2,77.6,29.94,SE,135,4.0,4.0,86,0.00,,,0.00,Wunderground v.1.15,2013-07-26 05:50:00,
2013-07-26 00:55:00,82.2,77.6,29.95,SSW,196,4.0,4.0,86,0.00,,,0.00,Wunderground v.1.15,2013-07-26 05:55:00,
2013-07-26 01:00:00,82.1,77.5,29.95,SSW,200,4.0,4.0,86,0.00,,,0.00,Wunderground v.1.15,2013-07-26 06:00:00,
2013-07-26 01:09:00,82.0,77.4,29.95,SSW,209,4.0,4.0,86,0.00,,,0.00,Wunderground v.1.15,2013-07-26 06:09:00,
2013-07-26 01:14:00,82.0,77.4,29.94,SSW,198,4.0,6.0,86,0.00,,,0.00,Wunderground v.1.15,2013-07-26 06:14:00,
2013-07-26 01:19:00,81.9,77.3,29.94,South,176,5.0,5.0,86,0.00,,,0.00,Wunderground v.1.15,2013-07-26 06:19:00,
2013-07-26 01:24:00,81.9,77.3,29.94,SSW,198,5.0,5.0,86,0.00,,,0.00,Wunderground v.1.15,2013-07-26 06:24:00,
2013-07-26 01:29:00,81.8,77.2,29.94,South,190,5.0,5.0,86,0.00,,,0.00,Wunderground v.1.15,2013-07-26 06:29:00,
2013-07-26 01:34:00,81.8,77.2,29.94,South,173,4.0,5.0,86,0.00,,,0.00,Wunderground v.1.15,2013-07-26 06:34:00,
2013-07-26 01:40:00,81.7,77.1,29.94,SSW,196,3.0,3.0,86,0.00,,,0.00,Wunderground v.1.15,2013-07-26 06:40:00,
2013-07-26 01:49:00,81.6,77.4,29.94,SSE,163,4.0,4.0,87,0.00,,,0.00,Wunderground v.1.15,2013-07-26 06:49:00,
2013-07-26 01:54:00,81.6,77.4,29.95,SW,218,3.0,4.0,87,0.00,,,0.00,Wunderground v.1.15,2013-07-26 06:54:00,
2013-07-26 02:00:00,81.5,77.3,29.95,South,179,3.0,8.0,87,0.00,,,0.00,Wunderground v.1.15,2013-07-26 07:00:00,
2013-07-26 02:10:00,81.4,77.2,29.95,SSW,213,3.0,3.0,87,0.00,,,0.00,Wunderground v.1.15,2013-07-26 07:10:00,
2013-07-26 02:20:00,81.3,77.1,29.94,SSW,207,4.0,6.0,87,0.00,,,0.00,Wunderground v.1.15,2013-07-26 07:20:00,
2013-07-26 02:25:00,81.2,77.0,29.94,WSW,256,4.0,6.0,87,0.00,,,0.00,Wunderground v.1.15,2013-07-26 07:25:00,
2013-07-26 02:30:00,81.1,77.2,29.94,SE,141,3.0,3.0,88,0.00,,,0.00,Wunderground v.1.15,2013-07-26 07:30:00,
2013-07-26 02:35:00,81.1,77.2,29.95,SW,224,3.0,3.0,88,0.00,,,0.00,Wunderground v.1.15,2013-07-26 07:35:00,
2013-07-26 02:40:00,81.1,77.2,29.95,SE,142,3.0,3.0,88,0.00,,,0.00,Wunderground v.1.15,2013-07-26 07:40:00,
2013-07-26 02:50:00,81.0,77.1,29.95,WSW,243,3.0,5.0,88,0.00,,,0.00,Wunderground v.1.15,2013-07-26 07:50:00,
2013-07-26 02:55:00,80.9,77.0,29.95,SSW,198,2.0,5.0,88,0.00,,,0.00,Wunderground v.1.15,2013-07-26 07:55:00,
2013-07-26 03:00:00,80.9,77.0,29.95,SSE,166,3.0,6.0,88,0.00,,,0.00,Wunderground v.1.15,2013-07-26 08:00:00,
2013-07-26 03:10:00,80.9,77.0,29.94,SSE,162,4.0,10.0,88,0.00,,,0.00,Wunderground v.1.15,2013-07-26 08:10:00,
2013-07-26 03:15:00,80.8,76.9,29.94,WSW,253,4.0,10.0,88,0.00,,,0.00,Wunderground v.1.15,2013-07-26 08:15:00,
2013-07-26 03:25:00,80.8,76.9,29.94,South,172,3.0,4.0,88,0.00,,,0.00,Wunderground v.1.15,2013-07-26 08:25:00,
2013-07-26 03:30:00,80.8,76.9,29.94,SW,222,4.0,5.0,88,0.00,,,0.00,Wunderground v.1.15,2013-07-26 08:30:00,
2013-07-26 03:35:00,80.8,76.9,29.93,South,179,5.0,5.0,88,0.00,,,0.00,Wunderground v.1.15,2013-07-26 08:35:00,
2013-07-26 03:40:00,80.7,76.8,29.93,South,180,4.0,6.0,88,0.00,,,0.00,Wunderground v.1.15,2013-07-26 08:40:00,
2013-07-26 03:45:00,80.7,76.8,29.94,SE,142,4.0,7.0,88,0.00,,,0.00,Wunderground v.1.15,2013-07-26 08:45:00,
2013-07-26 03:55:00,80.7,76.8,29.93,South,186,5.0,5.0,88,0.00,,,0.00,Wunderground v.1.15,2013-07-26 08:55:00,
2013-07-26 04:00:00,80.7,76.8,29.93,South,173,4.0,8.0,88,0.00,,,0.00,Wunderground v.1.15,2013-07-26 09:00:00,
2013-07-26 04:10:00,80.7,76.8,29.93,SSE,167,4.0,4.0,88,0.00,,,0.00,Wunderground v.1.15,2013-07-26 09:10:00,
2013-07-26 04:15:00,80.6,76.7,29.93,SSW,196,4.0,4.0,88,0.00,,,0.00,Wunderground v.1.15,2013-07-26 09:15:00,
2013-07-26 04:20:00,80.6,76.7,29.93,SW,217,4.0,4.0,88,0.00,,,0.00,Wunderground v.1.15,2013-07-26 09:20:00,
2013-07-26 04:30:00,80.5,76.6,29.93,SW,221,4.0,4.0,88,0.00,,,0.00,Wunderground v.1.15,2013-07-26 09:30:00,
2013-07-26 04:35:00,80.5,76.6,29.93,SW,219,4.0,4.0,88,0.00,,,0.00,Wunderground v.1.15,2013-07-26 09:35:00,
2013-07-26 04:40:00,80.6,76.7,29.93,SSW,211,3.0,3.0,88,0.00,,,0.00,Wunderground v.1.15,2013-07-26 09:40:00,
2013-07-26 04:45:00,80.5,76.6,29.93,SSW,193,3.0,6.0,88,0.00,,,0.00,Wunderground v.1.15,2013-07-26 09:45:00,
2013-07-26 04:50:00,80.5,76.6,29.92,South,184,3.0,3.0,88,0.00,,,0.00,Wunderground v.1.15,2013-07-26 09:50:00,
2013-07-26 05:00:00,80.4,76.9,29.92,WSW,239,4.0,4.0,89,0.00,,,0.00,Wunderground v.1.15,2013-07-26 10:00:00,
2013-07-26 05:10:00,80.3,76.8,29.93,SSW,203,4.0,4.0,89,0.00,,,0.00,Wunderground v.1.15,2013-07-26 10:10:00,
2013-07-26 05:15:00,80.3,76.8,29.93,SSW,197,4.0,4.0,89,0.00,,,0.00,Wunderground v.1.15,2013-07-26 10:15:00,
2013-07-26 05:20:00,80.3,76.8,29.93,South,170,3.0,3.0,89,0.00,,,0.00,Wunderground v.1.15,2013-07-26 10:20:00,
2013-07-26 05:25:00,80.2,76.7,29.93,South,174,3.0,5.0,89,0.00,,,0.00,Wunderground v.1.15,2013-07-26 10:25:00,
2013-07-26 05:35:00,80.1,76.9,29.93,SW,221,3.0,6.0,90,0.00,,,0.00,Wunderground v.1.15,2013-07-26 10:35:00,
2013-07-26 05:40:00,80.1,76.9,29.93,South,188,3.0,3.0,90,0.00,,,0.00,Wunderground v.1.15,2013-07-26 10:40:00,
2013-07-26 05:45:00,80.1,76.9,29.93,WSW,245,3.0,4.0,90,0.00,,,0.00,Wunderground v.1.15,2013-07-26 10:45:00,
2013-07-26 05:50:00,80.1,76.9,29.93,South,177,3.0,3.0,90,0.00,,,0.00,Wunderground v.1.15,2013-07-26 10:50:00,
2013-07-26 05:55:00,80.1,76.9,29.93,SSW,205,3.0,3.0,90,0.00,,,0.00,Wunderground v.1.15,2013-07-26 10:55:00,
2013-07-26 06:00:00,80.0,76.8,29.93,SSE,148,3.0,3.0,90,0.00,,,0.00,Wunderground v.1.15,2013-07-26 11:00:00,
2013-07-26 06:10:00,80.0,76.8,29.93,SSE,166,3.0,5.0,90,0.00,,,0.00,Wunderground v.1.15,2013-07-26 11:10:00,
2013-07-26 06:15:00,80.1,76.9,29.93,SSW,197,3.0,5.0,90,0.00,,,0.00,Wunderground v.1.15,2013-07-26 11:15:00,
2013-07-26 06:20:00,80.0,76.8,29.93,SW,225,2.0,3.0,90,0.00,,,0.00,Wunderground v.1.15,2013-07-26 11:20:00,
2013-07-26 06:25:00,80.0,76.8,29.93,South,188,3.0,4.0,90,0.00,,,0.00,Wunderground v.1.15,2013-07-26 11:25:00,
2013-07-26 06:30:00,80.0,76.8,29.93,SSE,158,3.0,3.0,90,0.00,,,0.00,Wunderground v.1.15,2013-07-26 11:30:00,
2013-07-26 06:40:00,80.0,76.8,29.93,SW,217,3.0,3.0,90,0.00,,,0.00,Wunderground v.1.15,2013-07-26 11:40:00,
2013-07-26 06:45:00,80.0,76.8,29.93,South,176,3.0,3.0,90,0.00,,,0.00,Wunderground v.1.15,2013-07-26 11:45:00,
2013-07-26 06:50:00,79.9,76.7,29.93,WSW,243,3.0,3.0,90,0.00,,,0.00,Wunderground v.1.15,2013-07-26 11:50:00,
2013-07-26 06:55:00,80.0,76.8,29.93,ESE,118,3.0,3.0,90,0.00,,,0.00,Wunderground v.1.15,2013-07-26 11:55:00,
2013-07-26 07:00:00,80.0,76.8,29.93,SE,143,2.0,3.0,90,0.00,,,0.00,Wunderground v.1.15,2013-07-26 12:00:00,
2013-07-26 07:10:00,80.1,76.9,29.93,SSE,165,2.0,4.0,90,0.00,,,0.00,Wunderground v.1.15,2013-07-26 12:10:00,
2013-07-26 07:15:00,80.2,77.0,29.93,SSE,165,3.0,7.0,90,0.00,,,0.00,Wunderground v.1.15,2013-07-26 12:15:00,
2013-07-26 07:20:00,80.4,77.2,29.93,SSE,153,3.0,3.0,90,0.00,,,0.00,Wunderground v.1.15,2013-07-26 12:20:00,
2013-07-26 07:25:00,80.7,77.2,29.93,SSW,210,3.0,3.0,89,0.00,,,0.00,Wunderground v.1.15,2013-07-26 12:25:00,
2013-07-26 07:30:00,80.9,77.4,29.93,SSE,155,3.0,3.0,89,0.00,,,0.00,Wunderground v.1.15,2013-07-26 12:30:00,
2013-07-26 07:35:00,81.2,77.6,29.93,SSW,203,3.0,7.0,89,0.00,,,0.00,Wunderground v.1.15,2013-07-26 12:35:00,
2013-07-26 07:45:00,81.8,77.9,29.93,South,172,4.0,4.0,88,0.00,,,0.00,Wunderground v.1.15,2013-07-26 12:45:00,
2013-07-26 07:50:00,82.0,77.7,29.93,SSE,165,4.0,4.0,87,0.00,,,0.00,Wunderground v.1.15,2013-07-26 12:50:00,
2013-07-26 07:55:00,82.3,78.0,29.94,South,173,3.0,4.0,87,0.00,,,0.00,Wunderground v.1.15,2013-07-26 12:55:00,
2013-07-26 08:00:00,82.6,78.0,29.94,SE,132,3.0,6.0,86,0.00,,,0.00,Wunderground v.1.15,2013-07-26 13:00:00,
2013-07-26 08:10:00,82.8,78.2,29.94,SSE,160,5.0,6.0,86,0.00,,,0.00,Wunderground v.1.15,2013-07-26 13:10:00,
2013-07-26 08:15:00,83.0,78.0,29.94,SSE,160,5.0,6.0,85,0.00,,,0.00,Wunderground v.1.15,2013-07-26 13:15:00,
2013-07-26 08:20:00,83.0,78.0,29.94,SE,128,5.0,5.0,85,0.00,,,0.00,Wunderground v.1.15,2013-07-26 13:20:00,
2013-07-26 08:25:00,83.2,77.9,29.94,SE,126,5.0,5.0,84,0.00,,,0.00,Wunderground v.1.15,2013-07-26 13:25:00,
2013-07-26 08:30:00,83.4,78.1,29.94,South,173,6.0,6.0,84,0.00,,,0.00,Wunderground v.1.15,2013-07-26 13:30:00,
2013-07-26 08:35:00,83.6,78.2,29.94,ESE,109,5.0,6.0,84,0.00,,,0.00,Wunderground v.1.15,2013-07-26 13:35:00,
2013-07-26 08:40:00,83.8,78.1,29.94,SSE,165,5.0,14.0,83,0.00,,,0.00,Wunderground v.1.15,2013-07-26 13:40:00,
2013-07-26 08:50:00,84.1,78.4,29.94,SE,146,6.0,6.0,83,0.00,,,0.00,Wunderground v.1.15,2013-07-26 13:50:00,
2013-07-26 08:55:00,84.3,78.2,29.94,South,169,5.0,6.0,82,0.00,,,0.00,Wunderground v.1.15,2013-07-26 13:55:00,
2013-07-26 09:00:00,84.6,78.1,29.94,SE,145,5.0,5.0,81,0.00,,,0.00,Wunderground v.1.15,2013-07-26 14:00:00,
2013-07-26 09:09:00,84.9,77.7,29.94,SSW,207,7.0,7.0,79,0.00,,,0.00,Wunderground v.1.15,2013-07-26 14:09:00,
2013-07-26 09:14:00,85.1,77.8,29.95,SSE,165,8.0,11.0,79,0.00,,,0.00,Wunderground v.1.15,2013-07-26 14:14:00,
2013-07-26 09:20:00,85.5,77.9,29.95,South,179,7.0,9.0,78,0.00,,,0.00,Wunderground v.1.15,2013-07-26 14:20:00,
2013-07-26 09:25:00,86.0,78.3,29.95,SSE,168,5.0,9.0,78,0.00,,,0.00,Wunderground v.1.15,2013-07-26 14:25:00,
2013-07-26 09:30:00,86.3,78.2,29.95,SW,229,5.0,7.0,77,0.00,,,0.00,Wunderground v.1.15,2013-07-26 14:30:00,
2013-07-26 09:35:00,86.5,78.0,29.95,ESE,121,6.0,7.0,76,0.00,,,0.00,Wunderground v.1.15,2013-07-26 14:35:00,
2013-07-26 09:40:00,86.7,78.2,29.95,South,183,6.0,6.0,76,0.00,,,0.00,Wunderground v.1.15,2013-07-26 14:40:00,
2013-07-26 09:45:00,86.9,78.0,29.95,South,174,5.0,7.0,75,0.00,,,0.00,Wunderground v.1.15,2013-07-26 14:45:00,
2013-07-26 09:55:00,87.5,78.2,29.95,SSW,211,4.0,5.0,74,0.00,,,0.00,Wunderground v.1.15,2013-07-26 14:55:00,
2013-07-26 10:00:00,87.6,77.9,29.96,SSW,205,5.0,10.0,73,0.00,,,0.00,Wunderground v.1.15,2013-07-26 15:00:00,
2013-07-26 10:09:00,87.9,77.3,29.96,South,181,5.0,5.0,71,0.00,,,0.00,Wunderground v.1.15,2013-07-26 15:09:00,
2013-07-26 10:14:00,87.9,77.3,29.96,South,176,7.0,7.0,71,0.00,,,0.00,Wunderground v.1.15,2013-07-26 15:14:00,
2013-07-26 10:19:00,87.9,77.7,29.96,SSW,198,7.0,7.0,72,0.00,,,0.00,Wunderground v.1.15,2013-07-26 15:19:00,
2013-07-26 10:25:00,88.2,77.2,29.96,SW,224,7.0,9.0,70,0.00,,,0.00,Wunderground v.1.15,2013-07-26 15:25:00,
2013-07-26 10:30:00,88.4,77.4,29.96,SSW,197,7.0,7.0,70,0.00,,,0.00,Wunderground v.1.15,2013-07-26 15:30:00,
2013-07-26 10:35:00,88.8,77.3,29.96,SSE,155,6.0,9.0,69,0.00,,,0.00,Wunderground v.1.15,2013-07-26 15:35:00,
2013-07-26 10:40:00,89.2,78.1,29.95,SSE,163,4.0,4.0,70,0.00,,,0.00,Wunderground v.1.15,2013-07-26 15:40:00,
2013-07-26 10:45:00,89.1,77.6,29.95,South,187,4.0,11.0,69,0.00,,,0.00,Wunderground v.1.15,2013-07-26 15:45:00,
2013-07-26 10:50:00,88.8,77.7,29.95,SSE,160,6.0,6.0,70,0.00,,,0.00,Wunderground v.1.15,2013-07-26 15:50:00,
2013-07-26 11:00:00,88.9,77.8,29.94,South,174,5.0,6.0,70,0.00,,,0.00,Wunderground v.1.15,2013-07-26 16:00:00,
2013-07-26 16:25:00,88.6,78.4,29.88,ESE,103,8.0,8.0,72,0.00,,,0.00,Wunderground v.1.15,2013-07-26 21:25:00,
2013-07-26 16:30:00,88.8,78.6,29.88,SE,139,8.0,8.0,72,0.00,,,0.00,Wunderground v.1.15,2013-07-26 21:30:00,
2013-07-26 16:35:00,89.0,78.8,29.88,SSE,152,6.0,8.0,72,0.00,,,0.00,Wunderground v.1.15,2013-07-26 21:35:00,
2013-07-26 16:40:00,89.1,78.9,29.88,SSW,195,5.0,5.0,72,0.00,,,0.00,Wunderground v.1.15,2013-07-26 21:40:00,
2013-07-26 16:45:00,88.9,78.3,29.87,SSE,149,5.0,5.0,71,0.00,,,0.00,Wunderground v.1.15,2013-07-26 21:45:00,
2013-07-26 16:50:00,88.4,78.2,29.87,East,98,6.0,6.0,72,0.00,,,0.00,Wunderground v.1.15,2013-07-26 21:50:00,
2013-07-26 17:00:00,87.9,78.2,29.87,SSW,201,7.0,11.0,73,0.00,,,0.00,Wunderground v.1.15,2013-07-26 22:00:00,
2013-07-26 17:09:00,87.4,77.7,29.87,South,188,9.0,10.0,73,0.00,,,0.00,Wunderground v.1.15,2013-07-26 22:09:00,
2013-07-26 17:14:00,87.3,78.0,29.87,ESE,112,8.0,10.0,74,0.00,,,0.00,Wunderground v.1.15,2013-07-26 22:14:00,
2013-07-26 17:19:00,87.3,78.0,29.87,SE,128,7.0,7.0,74,0.00,,,0.00,Wunderground v.1.15,2013-07-26 22:19:00,
2013-07-26 17:24:00,87.3,78.0,29.87,SSW,203,8.0,12.0,74,0.00,,,0.00,Wunderground v.1.15,2013-07-26 22:24:00,
2013-07-26 17:30:00,87.2,77.9,29.87,ESE,120,8.0,8.0,74,0.00,,,0.00,Wunderground v.1.15,2013-07-26 22:30:00,
2013-07-26 17:35:00,87.2,77.9,29.87,South,180,8.0,8.0,74,0.00,,,0.00,Wunderground v.1.15,2013-07-26 22:35:00,
2013-07-26 17:45:00,87.4,78.1,29.86,ESE,120,7.0,10.0,74,0.00,,,0.00,Wunderground v.1.15,2013-07-26 22:45:00,
2013-07-26 17:50:00,87.3,77.6,29.86,SSE,150,6.0,6.0,73,0.00,,,0.00,Wunderground v.1.15,2013-07-26 22:50:00,
2013-07-26 17:55:00,87.2,77.5,29.86,South,177,7.0,11.0,73,0.00,,,0.00,Wunderground v.1.15,2013-07-26 22:55:00,
2013-07-26 18:00:00,87.0,77.7,29.86,SSE,148,8.0,12.0,74,0.00,,,0.00,Wunderground v.1.15,2013-07-26 23:00:00,
2013-07-26 18:09:00,86.6,77.3,29.86,ESE,122,8.0,8.0,74,0.00,,,0.00,Wunderground v.1.15,2013-07-26 23:09:00,
2013-07-26 18:14:00,86.5,77.6,29.86,East,89,9.0,9.0,75,0.00,,,0.00,Wunderground v.1.15,2013-07-26 23:14:00,
2013-07-26 18:19:00,86.6,77.7,29.86,SSW,200,8.0,13.0,75,0.00,,,0.00,Wunderground v.1.15,2013-07-26 23:19:00,
2013-07-26 18:24:00,86.6,78.1,29.85,SW,217,8.0,13.0,76,0.00,,,0.00,Wunderground v.1.15,2013-07-26 23:24:00,
2013-07-26 18:29:00,86.7,77.8,29.85,ESE,110,7.0,16.0,75,0.00,,,0.00,Wunderground v.1.15,2013-07-26 23:29:00,
2013-07-26 18:35:00,86.7,77.8,29.85,SSW,200,7.0,16.0,75,0.00,,,0.00,Wunderground v.1.15,2013-07-26 23:35:00,
2013-07-26 18:40:00,86.4,77.9,29.86,South,171,7.0,7.0,76,0.00,,,0.00,Wunderground v.1.15,2013-07-26 23:40:00,
2013-07-26 18:45:00,86.3,77.8,29.85,SE,140,8.0,8.0,76,0.00,,,0.00,Wunderground v.1.15,2013-07-26 23:45:00,
2013-07-26 18:50:00,86.2,77.7,29.85,SSE,148,8.0,8.0,76,0.00,,,0.00,Wunderground v.1.15,2013-07-26 23:50:00,
2013-07-26 18:55:00,86.1,77.6,29.85,SE,137,8.0,8.0,76,0.00,,,0.00,Wunderground v.1.15,2013-07-26 23:55:00,
2013-07-26 19:00:00,86.1,77.6,29.85,SSE,167,8.0,9.0,76,0.00,,,0.00,Wunderground v.1.15,2013-07-27 00:00:00,
2013-07-26 19:09:00,86.1,77.6,29.84,ESE,117,6.0,6.0,76,0.00,,,0.00,Wunderground v.1.15,2013-07-27 00:09:00,
2013-07-26 19:15:00,86.1,77.2,29.84,East,98,7.0,7.0,75,0.00,,,0.00,Wunderground v.1.15,2013-07-27 00:15:00,
2013-07-26 19:20:00,85.9,77.1,29.84,SSE,167,8.0,8.0,75,0.00,,,0.00,Wunderground v.1.15,2013-07-27 00:20:00,
2013-07-26 19:25:00,85.9,77.5,29.84,East,90,7.0,8.0,76,0.00,,,0.00,Wunderground v.1.15,2013-07-27 00:25:00,
2013-07-26 19:30:00,85.7,77.3,29.84,ESE,108,8.0,8.0,76,0.00,,,0.00,Wunderground v.1.15,2013-07-27 00:30:00,
2013-07-26 19:35:00,85.6,77.2,29.84,South,187,8.0,8.0,76,0.00,,,0.00,Wunderground v.1.15,2013-07-27 00:35:00,
2013-07-26 19:40:00,85.4,77.0,29.84,SSE,163,7.0,7.0,76,0.00,,,0.00,Wunderground v.1.15,2013-07-27 00:40:00,
2013-07-26 19:49:00,84.8,76.8,29.84,WSW,245,10.0,10.0,77,0.00,,,0.00,Wunderground v.1.15,2013-07-27 00:49:00,
2013-07-26 19:54:00,84.6,76.6,29.84,SE,127,9.0,10.0,77,0.00,,,0.00,Wunderground v.1.15,2013-07-27 00:54:00,
2013-07-26 20:00:00,84.5,76.9,29.84,South,170,8.0,8.0,78,0.00,,,0.00,Wunderground v.1.15,2013-07-27 01:00:00,
2013-07-26 20:10:00,84.2,77.0,29.84,SSE,160,8.0,8.0,79,0.00,,,0.00,Wunderground v.1.15,2013-07-27 01:10:00,
2013-07-26 20:15:00,84.1,76.9,29.84,South,169,9.0,13.0,79,0.00,,,0.00,Wunderground v.1.15,2013-07-27 01:15:00,
2013-07-26 20:20:00,84.1,77.3,29.84,SE,136,8.0,8.0,80,0.00,,,0.00,Wunderground v.1.15,2013-07-27 01:20:00,
2013-07-26 20:25:00,83.9,77.1,29.84,SSE,160,7.0,11.0,80,0.00,,,0.00,Wunderground v.1.15,2013-07-27 01:25:00,
2013-07-26 20:30:00,83.8,77.0,29.85,South,174,7.0,11.0,80,0.00,,,0.00,Wunderground v.1.15,2013-07-27 01:30:00,
2013-07-26 20:35:00,83.7,76.9,29.85,SSE,150,8.0,11.0,80,0.00,,,0.00,Wunderground v.1.15,2013-07-27 01:35:00,
2013-07-26 20:40:00,83.7,76.9,29.85,East,101,8.0,8.0,80,0.00,,,0.00,Wunderground v.1.15,2013-07-27 01:40:00,
2013-07-26 20:50:00,83.6,76.8,29.85,SSW,203,7.0,11.0,80,0.00,,,0.00,Wunderground v.1.15,2013-07-27 01:50:00,
2013-07-26 20:55:00,83.6,77.1,29.85,SSE,153,8.0,11.0,81,0.00,,,0.00,Wunderground v.1.15,2013-07-27 01:55:00,
2013-07-26 21:00:00,83.5,77.1,29.85,SSE,162,8.0,8.0,81,0.00,,,0.00,Wunderground v.1.15,2013-07-27 02:00:00,
2013-07-26 21:09:00,83.4,77.0,29.86,SW,233,8.0,8.0,81,0.00,,,0.00,Wunderground v.1.15,2013-07-27 02:09:00,
2013-07-26 21:14:00,83.4,77.0,29.86,SSE,153,7.0,8.0,81,0.00,,,0.00,Wunderground v.1.15,2013-07-27 02:14:00,
2013-07-26 21:20:00,83.3,76.9,29.86,South,190,8.0,8.0,81,0.00,,,0.00,Wunderground v.1.15,2013-07-27 02:20:00,
2013-07-26 21:25:00,83.2,76.8,29.86,SE,129,7.0,8.0,81,0.00,,,0.00,Wunderground v.1.15,2013-07-27 02:25:00,
2013-07-26 21:30:00,83.2,76.8,29.86,SE,125,6.0,6.0,81,0.00,,,0.00,Wunderground v.1.15,2013-07-27 02:30:00,
2013-07-26 21:35:00,83.2,76.8,29.86,South,176,7.0,7.0,81,0.00,,,0.00,Wunderground v.1.15,2013-07-27 02:35:00,
2013-07-26 21:44:00,83.2,76.8,29.87,West,260,8.0,10.0,81,0.00,,,0.00,Wunderground v.1.15,2013-07-27 02:44:00,
2013-07-26 21:50:00,83.2,76.8,29.87,SSE,168,7.0,7.0,81,0.00,,,0.00,Wunderground v.1.15,2013-07-27 02:50:00,
2013-07-26 21:55:00,83.1,77.0,29.87,South,172,7.0,9.0,82,0.00,,,0.00,Wunderground v.1.15,2013-07-27 02:55:00,
2013-07-26 22:00:00,83.1,77.0,29.88,ESE,114,6.0,10.0,82,0.00,,,0.00,Wunderground v.1.15,2013-07-27 03:00:00,
2013-07-26 22:10:00,83.0,77.3,29.88,SSE,156,7.0,9.0,83,0.00,,,0.00,Wunderground v.1.15,2013-07-27 03:10:00,
2013-07-26 22:15:00,83.0,77.3,29.88,South,181,7.0,9.0,83,0.00,,,0.00,Wunderground v.1.15,2013-07-27 03:15:00,
2013-07-26 22:20:00,82.9,77.2,29.88,South,186,7.0,9.0,83,0.00,,,0.00,Wunderground v.1.15,2013-07-27 03:20:00,
2013-07-26 22:29:00,82.8,77.1,29.88,South,174,7.0,7.0,83,0.00,,,0.00,Wunderground v.1.15,2013-07-27 03:29:00,
2013-07-26 22:34:00,82.8,76.7,29.88,SSW,195,8.0,8.0,82,0.00,,,0.00,Wunderground v.1.15,2013-07-27 03:34:00,
2013-07-26 22:39:00,82.8,76.7,29.88,SSE,166,8.0,8.0,82,0.00,,,0.00,Wunderground v.1.15,2013-07-27 03:39:00,
2013-07-26 22:44:00,82.7,76.6,29.88,SSE,156,7.0,8.0,82,0.00,,,0.00,Wunderground v.1.15,2013-07-27 03:44:00,
2013-07-26 22:49:00,82.7,76.6,29.88,SE,146,7.0,9.0,82,0.00,,,0.00,Wunderground v.1.15,2013-07-27 03:49:00,
2013-07-26 22:55:00,82.6,76.9,29.88,SSE,166,7.0,9.0,83,0.00,,,0.00,Wunderground v.1.15,2013-07-27 03:55:00,
2013-07-26 23:00:00,82.6,76.9,29.89,SSE,167,8.0,9.0,83,0.00,,,0.00,Wunderground v.1.15,2013-07-27 04:00:00,
2013-07-26 23:05:00,82.6,76.9,29.89,SE,144,7.0,9.0,83,0.00,,,0.00,Wunderground v.1.15,2013-07-27 04:05:00,
2013-07-26 23:10:00,82.5,76.8,29.89,SSW,203,6.0,7.0,83,0.00,,,0.00,Wunderground v.1.15,2013-07-27 04:10:00,
2013-07-26 23:15:00,82.5,76.8,29.89,West,281,5.0,7.0,83,0.00,,,0.00,Wunderground v.1.15,2013-07-27 04:15:00,
2013-07-26 23:20:00,82.5,76.8,29.89,SE,129,6.0,8.0,83,0.00,,,0.00,Wunderground v.1.15,2013-07-27 04:20:00,
2013-07-26 23:25:00,82.4,76.7,29.89,SSW,194,7.0,8.0,83,0.00,,,0.00,Wunderground v.1.15,2013-07-27 04:25:00,
2013-07-26 23:34:00,82.3,77.0,29.89,SSW,211,7.0,7.0,84,0.00,,,0.00,Wunderground v.1.15,2013-07-27 04:34:00,
2013-07-26 23:39:00,82.3,77.0,29.89,SSE,163,6.0,15.0,84,0.00,,,0.00,Wunderground v.1.15,2013-07-27 04:39:00,
2013-07-26 23:44:00,82.2,76.9,29.89,SSE,158,6.0,15.0,84,0.00,,,0.00,Wunderground v.1.15,2013-07-27 04:44:00,
2013-07-26 23:49:00,82.1,77.1,29.89,SSW,197,7.0,7.0,85,0.00,,,0.00,Wunderground v.1.15,2013-07-27 04:49:00,
2013-07-26 23:54:00,82.1,77.1,29.89,SW,223,8.0,10.0,85,0.00,,,0.00,Wunderground v.1.15,2013-07-27 04:54:00,